Tucson, AZ

6:35 AM MST on May 24, 2017 (GMT -0700)
Tucson International

Weather History for KTUS - January, 2014

Change the Weather History Date:

Sunday, January 26, 2014

  Actual Average Record
Temperature  
Mean Temperature 59 °F 53 °F  
Max Temperature 72 °F 66 °F 82 °F (1951)
Min Temperature 45 °F 40 °F 21 °F (1932)
Degree Days  
Heating Degree Days 6 12  
Month to date heating degree days 211 326  
Since 1 July heating degree days 676 937  
Cooling Degree Days 0 0  
Month to date cooling degree days 0 0  
Year to date cooling degree days 0 0  
Growing Degree Days 8 (Base 50)    
Moisture  
Dew Point 30 °F    
Average Humidity 41    
Maximum Humidity 65    
Minimum Humidity 17    
Precipitation  
Precipitation 0.00 in 0.03 in 0.71 in (2013)
Month to date precipitation T 0.78  
Year to date precipitation T 0.78  
Sea Level Pressure  
Sea Level Pressure 30.01 in    
Wind  
Wind Speed 5 mph (South)    
Max Wind Speed 12 mph    
Max Gust Speed 16 mph    
Visibility 10 miles    
Events      
T = Trace of Precipitation, MM = Missing Value Source: NWS Daily Summary

Daily Weather History Graph

Daily Weather History Graph

Search for Another Location

Airport or City:

Trip Planner

Search our weather history database for the weather conditions in past years. The results will help you decide how hot, cold, wet, or windy it might be!

Date:

Astronomy

Jan. 26, 2014 Rise Set
Actual Time 7:20 AM MST 5:52 PM MST
Civil Twilight 6:55 AM MST 6:18 PM MST
Nautical Twilight 6:25 AM MST 6:47 PM MST
Astronomical Twilight 5:56 AM MST 7:16 PM MST
Moon 3:00 AM MST (1/26) 1:46 PM MST (1/26)
Length of Visible Light 11h 23m
Length of Day
10h 31m
Waning Crescent, 23% of the Moon is Illuminated
Jan 26
Waning Crescent
Jan 30
New
Feb 6
First Quarter
Feb 14
Full
Feb 22
Last Quarter

Hourly Weather History & Observations

Time (MST) Temp. Windchill Dew Point Humidity Pressure Visibility Wind Dir Wind Speed Gust Speed Precip Events Conditions
12:53 AM 54.0 °F - 32.0 °F 43% 30.06 in 10.0 mi SSE 5.8 mph - N/A   Clear
1:53 AM 52.0 °F - 33.1 °F 49% 30.05 in 10.0 mi South 3.5 mph - N/A   Clear
2:53 AM 50.0 °F - 34.0 °F 54% 30.05 in 10.0 mi SE 6.9 mph - N/A   Clear
3:53 AM 48.0 °F - 35.1 °F 61% 30.05 in 10.0 mi SSE 5.8 mph - N/A   Clear
4:53 AM 48.0 °F - 36.0 °F 63% 30.04 in 10.0 mi South 6.9 mph - N/A   Clear
5:53 AM 46.9 °F - 35.1 °F 63% 30.04 in 10.0 mi SSE 5.8 mph - N/A   Clear
6:53 AM 46.0 °F 43.1 °F 35.1 °F 66% 30.06 in 10.0 mi SSE 5.8 mph - N/A   Clear
7:53 AM 46.0 °F 43.1 °F 35.1 °F 66% 30.07 in 10.0 mi SE 5.8 mph - N/A   Clear
8:53 AM 50.0 °F - 36.0 °F 59% 30.08 in 10.0 mi South 4.6 mph - N/A   Clear
9:53 AM 57.0 °F - 35.1 °F 44% 30.08 in 10.0 mi SE 3.5 mph - N/A   Clear
10:53 AM 62.1 °F - 30.0 °F 30% 30.07 in 10.0 mi Calm Calm - N/A   Clear
11:53 AM 64.9 °F - 26.1 °F 23% 30.04 in 10.0 mi Calm Calm - N/A   Clear
12:53 PM 66.9 °F - 25.0 °F 21% 30.01 in 10.0 mi NW 4.6 mph - N/A   Clear
1:53 PM 70.0 °F - 23.0 °F 17% 29.98 in 10.0 mi NW 4.6 mph - N/A   Clear
2:53 PM 72.0 °F - 24.1 °F 17% 29.96 in 10.0 mi WNW 10.4 mph - N/A   Clear
3:53 PM 72.0 °F - 25.0 °F 17% 29.93 in 10.0 mi NW 9.2 mph - N/A   Clear
4:53 PM 71.1 °F - 25.0 °F 18% 29.92 in 10.0 mi North 6.9 mph - N/A   Clear
5:53 PM 68.0 °F - 26.1 °F 21% 29.93 in 10.0 mi NNW 4.6 mph - N/A   Clear
6:53 PM 64.9 °F - 26.1 °F 23% 29.96 in 10.0 mi North 3.5 mph - N/A   Clear
7:53 PM 63.0 °F - 27.0 °F 26% 29.96 in 10.0 mi North 3.5 mph - N/A   Clear
8:53 PM 59.0 °F - 27.0 °F 29% 29.97 in 10.0 mi SW 3.5 mph - N/A   Clear
9:53 PM 57.0 °F - 27.0 °F 32% 29.97 in 10.0 mi South 3.5 mph - N/A   Clear
10:53 PM 54.0 °F - 28.0 °F 37% 29.96 in 10.0 mi South 5.8 mph - N/A   Clear
11:53 PM 53.1 °F - 28.0 °F 38% 29.95 in 10.0 mi South 5.8 mph - N/A   Clear